Probability
16 16 16 14 12 12 13 13 13 13 14 15 15 15 14 9 4 3 3 3 2 1 0 0 0 0 0 0 0 1 2 2 1 0 0 0 0 0
16 17 17 16 16 15 15 15 14 14 15 15 15 14 12 7 4 3 3 3 3 1 0 0 0 0 0 0 0 0 1 1 1 0 0 0 0 0
17 18 18 18 18 18 18 17 15 16 17 16 15 14 12 9 5 3 3 3 3 2 1 1 0 0 0 0 0 0 0 0 0 0 0 0 0 0
19 20 21 21 21 20 18 17 17 18 18 16 14 13 13 12 9 5 4 3 3 2 2 2 1 1 0 0 0 0 0 0 0 0 0 0 0 0
20 21 22 25 25 23 20 19 18 18 18 16 12 11 12 12 11 8 6 5 2 1 1 2 2 1 0 0 0 0 0 0 0 0 0 0 0 0
23 23 24 26 26 23 22 21 20 19 18 16 13 12 12 11 10 9 7 6 3 1 1 1 1 2 1 0 0 0 0 0 0 0 0 0 0 0
26 24 23 23 20 18 19 20 19 17 16 16 15 14 12 10 9 7 6 5 3 2 2 1 2 3 3 2 0 0 0 0 0 0 0 0 0 0
25 24 22 18 15 14 14 15 14 13 13 14 15 14 12 10 9 7 7 5 3 3 3 2 3 4 5 3 1 0 0 0 0 0 0 0 0 0
24 23 20 17 14 13 12 12 11 9 10 12 14 14 13 12 9 8 7 5 3 3 3 2 3 4 5 4 2 1 0 0 0 0 0 0 0 0
24 22 20 17 15 13 12 11 11 10 9 10 11 12 12 11 9 6 6 4 3 3 3 3 3 4 5 5 4 2 0 0 0 0 0 0 0 0
23 21 19 17 15 13 12 12 12 12 10 9 8 8 9 8 5 5 5 4 2 2 3 4 4 5 5 6 6 3 1 0 0 0 0 0 0 0
21 20 18 15 11 10 10 12 12 12 11 10 8 8 8 6 4 5 6 5 3 2 4 5 5 4 5 6 7 4 2 1 0 0 0 0 0 0
19 19 16 10 6 5 6 8 9 10 10 11 11 11 10 9 6 5 6 6 4 4 5 5 4 4 4 5 6 5 3 2 1 0 0 0 0 0
17 15 11 6 3 2 2 4 6 7 8 10 11 11 12 12 11 7 6 7 6 5 5 5 5 4 4 5 5 5 5 4 3 1 0 0 0 0
12 9 6 3 2 1 2 3 5 6 7 7 8 10 11 13 14 11 8 8 8 6 5 5 6 5 5 6 5 5 5 5 5 2 1 0 0 0
6 5 4 3 2 2 3 4 6 7 7 8 9 11 11 12 14 14 12 10 9 7 5 6 7 6 6 6 6 5 4 5 5 4 3 1 0 0
3 4 4 4 3 4 5 6 8 9 9 10 12 12 11 10 11 12 11 9 8 7 6 7 7 7 6 5 4 4 4 4 5 5 4 2 1 0
3 4 5 5 4 4 6 7 9 10 10 11 11 11 10 8 7 7 7 5 5 5 5 6 6 6 5 3 3 3 3 3 4 5 5 4 1 0
4 4 6 7 6 6 6 8 8 10 11 11 10 9 8 8 6 4 3 3 3 4 4 4 5 3 2 1 1 1 2 3 4 6 6 5 2 1
4 6 8 8 8 8 7 7 8 10 12 12 10 8 7 7 6 4 3 2 3 4 4 3 3 1 0 0 0 0 1 2 4 5 5 4 3 2
5 7 9 10 10 9 8 7 8 8 10 10 8 7 6 6 5 4 4 3 3 3 3 3 2 1 0 0 0 0 0 0 2 3 3 3 3 2
7 7 9 10 9 9 8 7 7 6 6 6 6 5 5 3 3 3 3 3 4 3 3 2 2 1 0 0 0 0 0 0 0 1 1 1 2 1
8 7 8 9 8 8 7 7 6 5 4 4 4 4 2 1 1 1 2 3 4 4 3 2 1 0 0 0 0 0 0 0 0 0 0 0 1 0
Wind_Speed
2 2 2 2 1 1 1 2 2 2 2 3 2 3 3 3 6 4 4 7 7 6 4 4 3 2 2 2 2 3 3 3 3 3 3 3 2 3
1 1 1 1 1 1 1 2 2 2 1 2 2 2 2 3 6 3 4 9 8 7 6 5 4 3 3 2 2 3 3 3 3 3 3 3 3 3
2 2 2 2 1 1 1 1 1 2 2 1 2 3 2 3 3 3 4 5 5 8 7 6 5 4 4 3 2 2 2 2 3 2 3 3 3 3
2 2 2 2 1 1 1 1 1 2 2 3 2 2 3 3 3 4 4 4 4 8 9 8 7 6 5 4 3 2 2 2 2 2 2 2 2 2
2 2 2 1 2 1 2 1 1 1 2 2 3 2 2 3 3 3 3 3 4 7 9 9 9 8 7 6 5 4 3 3 2 2 2 2 2 2
2 2 2 2 2 2 2 2 1 1 2 2 2 2 2 2 3 3 3 3 3 4 5 7 9 10 9 8 7 6 5 4 4 3 3 3 2 2
2 2 1 1 1 1 1 1 1 2 2 2 3 2 3 3 4 3 3 3 3 3 3 4 5 5 6 8 8 8 7 7 6 5 5 4 3 3
2 2 3 3 3 2 2 1 1 2 2 2 3 3 4 4 4 4 3 3 3 3 3 4 4 5 5 5 9 11 10 9 8 7 6 5 5 4
3 3 3 3 4 3 3 3 3 3 3 3 3 3 4 4 4 4 4 4 3 3 2 3 3 4 4 6 11 12 11 10 9 8 8 7 6 6
3 3 3 2 3 3 3 3 3 3 4 3 3 3 3 2 3 4 4 3 3 2 3 3 3 3 3 4 11 12 12 11 11 10 9 9 8 7
4 4 4 4 4 4 4 4 4 3 3 3 3 3 3 3 3 2 2 2 3 3 3 3 3 2 2 3 7 12 12 12 11 10 10 9 9 7
3 4 4 4 4 5 5 4 4 4 3 3 3 4 4 5 6 5 3 3 3 2 3 3 3 2 2 2 4 5 6 9 10 10 10 10 9 6
3 3 3 5 6 6 6 5 5 3 3 3 4 4 4 4 5 5 5 4 4 3 2 2 2 2 2 2 2 4 5 5 6 7 9 11 11 9
3 3 3 6 7 7 6 5 5 4 3 3 3 4 4 4 4 5 5 4 4 4 3 2 3 3 3 3 3 3 5 5 5 5 6 9 10 11
3 3 3 5 6 5 8 7 6 4 4 4 4 4 4 4 4 3 4 3 4 4 4 4 4 3 3 3 3 3 3 4 5 5 6 6 7 6
4 3 4 6 5 5 5 5 5 4 4 4 3 3 2 2 3 3 3 3 3 3 4 4 4 4 4 4 3 3 3 4 4 5 5 5 6 6
3 3 3 3 4 4 4 4 5 4 5 4 3 3 3 3 3 3 3 3 4 4 4 3 4 4 5 4 4 4 4 3 4 4 4 5 5 6
4 4 5 5 5 5 5 5 5 4 4 4 4 3 3 3 3 3 3 4 4 4 4 4 3 2 2 4 5 5 3 3 3 4 4 5 5 5
5 5 5 5 5 5 5 5 5 4 4 4 4 3 3 3 3 3 4 4 4 4 3 3 3 3 4 5 4 6 5 4 4 4 4 4 5 5
6 5 5 4 4 4 4 4 4 4 4 4 4 3 3 3 4 4 4 4 4 4 4 3 4 4 5 5 3 4 9 6 5 5 5 4 4 4
5 5 4 4 3 3 3 4 3 3 4 4 4 4 4 4 4 4 4 5 5 4 5 5 5 6 3 3 3 4 4 8 8 5 5 4 4 4
4 4 3 3 3 3 3 3 3 3 3 4 3 3 4 4 5 5 5 4 4 5 5 4 3 4 4 5 6 5 4 4 7 9 8 7 5 5
4 3 2 2 3 3 3 3 3 3 2 3 2 3 3 3 4 4 4 5 4 4 4 3 3 4 5 5 5 5 6 5 4 4 5 8 10 9
Wind_Direction
230 216 230 229 233 222 163 170 179 193 198 179 166 152 145 138 150 157 153 152 153 150 148 140 127 110 94 87 85 88 87 83 80 80 77 73 87 103
222 224 241 253 229 225 200 220 204 191 205 163 154 146 150 145 153 164 153 153 162 167 164 157 151 143 132 120 116 113 111 110 106 99 91 82 81 83
214 201 211 242 237 242 218 219 203 172 184 175 140 144 147 153 157 171 169 173 173 177 172 171 168 165 160 153 145 140 136 136 133 128 116 101 92 88
219 210 218 207 207 251 258 245 214 184 180 180 170 167 177 178 179 197 192 190 179 180 182 183 181 177 172 165 157 155 157 153 152 149 137 126 117 109
208 211 217 202 212 231 240 236 234 200 173 181 188 172 177 184 192 215 211 208 197 179 186 192 191 183 179 175 171 168 169 169 168 166 163 153 137 126
193 196 201 203 213 236 229 226 227 206 184 186 190 180 181 195 196 211 220 216 218 197 193 189 191 191 191 187 185 184 185 185 183 181 176 171 163 152
190 191 173 157 160 213 235 222 209 212 205 198 198 186 193 194 214 222 225 221 223 199 196 194 183 194 197 198 197 195 192 192 192 189 186 184 182 178
209 204 189 164 162 165 156 148 189 213 219 212 206 205 211 205 214 224 221 219 231 205 196 215 187 194 196 195 195 193 195 197 197 196 194 195 197 198
221 223 231 202 188 189 198 200 212 231 231 233 234 229 214 204 209 220 223 225 235 208 204 229 204 208 199 191 185 188 192 197 201 202 201 201 203 206
220 217 218 215 209 209 219 215 220 230 233 230 242 250 232 211 213 220 229 239 249 220 197 230 216 216 206 178 183 187 192 198 202 204 205 205 205 209
221 217 213 213 204 212 218 225 225 226 227 222 220 221 220 212 219 236 227 232 246 226 202 224 229 220 208 187 192 195 196 199 203 207 208 207 206 205
221 217 207 203 192 205 220 227 230 229 216 206 216 225 222 216 213 218 221 230 245 236 202 210 224 209 228 207 183 187 200 206 209 211 208 206 200 197
229 227 204 189 200 214 227 235 234 238 229 220 217 217 215 209 208 215 219 220 234 244 210 197 229 221 217 215 194 190 193 196 200 213 213 208 202 198
241 232 201 197 203 215 224 232 227 232 237 231 229 223 216 211 211 210 217 223 229 236 225 210 236 223 224 234 222 197 200 200 194 200 200 201 210 216
252 244 225 204 207 216 225 222 215 219 226 228 230 228 218 208 203 198 206 225 239 241 227 219 233 239 223 227 228 209 206 208 201 197 194 192 196 200
241 248 216 208 220 226 214 215 217 224 227 233 233 235 222 211 214 205 208 213 232 242 232 218 223 229 237 240 233 231 217 207 204 205 199 201 199 199
207 218 219 208 214 217 215 213 216 216 224 234 233 227 221 219 221 214 211 217 224 232 231 219 213 221 238 237 237 234 226 225 213 201 198 210 213 206
198 224 223 219 220 223 222 220 219 219 222 225 230 231 230 228 227 223 219 226 235 236 234 219 206 218 259 258 222 227 234 234 231 214 204 211 221 216
212 230 232 228 225 227 226 225 224 218 216 223 226 231 230 232 234 234 231 232 238 242 242 231 210 212 240 257 242 211 220 229 223 225 219 218 224 214
229 233 235 235 234 231 229 230 224 216 217 224 223 223 226 231 237 237 234 235 239 240 242 235 224 219 229 243 251 239 217 219 220 224 225 229 227 216
239 245 244 242 245 246 243 238 229 224 220 219 222 224 226 231 235 234 235 239 236 236 239 237 234 230 234 228 248 251 233 218 221 218 215 223 227 220
248 249 250 251 247 250 249 248 246 241 231 225 226 227 229 233 240 241 237 231 232 238 243 240 218 217 228 233 241 247 251 241 233 235 230 221 216 219
245 249 245 250 252 251 251 255 259 257 249 247 246 242 243 246 246 245 242 237 236 241 244 241 228 224 233 235 240 246 247 242 236 225 234 234 229 228